map of ESU home
Great Circle Mapper logo
ESU - Airport
Location
City:  Essaouira, Morocco
Name:Mogador
ICAO:GMMI
IATA:ESU

Details
Type:Airport (Aerodrome, Airfield)
Use:International (customs port of entry)
Latitude:3123'51"N (31.397500)
Longitude:940'54"W (-9.681666)
Datum:WGS 1984
Elevation:384 ft (117 m)
Variation:2.68W (WMM2015 magnetic declination)
0.11 annual change
Runways:1
Longest:6890 × 148 ft (2100 × 45 m), paved

Time
Time Zone:UTC+0 (DST+1)
Local Time:

Weather
METAR:GMMI 290700Z 04006KT 6000 NSC 20/18 Q1015 NOSIG
TAF:GMMI 290500Z 2906/2912 03006KT 5000 SCT004 PROB40 2906/2909 3000 BR
TEMPO 2911/2913 35016KT
BECMG 2920/2922 01006KT PROB30 3002/3007 4000 BR
BECMG 3009/3011 340012KT

Related Locations
Nearby:
Farthest:NLK: 12220 mi / 19667 km
Norfolk Island, NF

Find:

   beyond  
but within

Other Information
Maps:
NOTAMs:
Links:
Sources:

  
flag of Morocco   

Sectional Chart

Flight Planning
at skyvector.com

Satellite Image

Google Maps Satellite view

 

Copyright © 2004-2016 Karl L. Swartz. All rights reserved.
The Great Circle Mapper name and logo are trademarks of the Great Circle Mapper.
All other trademarks mentioned herein belong to their respective owners.
Please see credits for attibutions and further copyright information.

  Follow gcmap on Facebook Follow gcmap on Twitter Follow gcmap on Google+ GCmap on LinkedIn

hCard Microformat

Geo Microformat